contact:dominique.lefevre@mio.osupytheas.fr, maurice.libes@osupytheas.fr, didier.mallarino@osupytheas.fr
Project:EMSO http://www.emso-fr.org/EMSO-France
Depth: 2436.0 m
Title:EMSO Ligure Ouest : Data MII capteur AQUADOPP
Date,Latitude,Longitude,X_East,Y_North,Z_Up,Amplitude_X,Amplitude_Y,Amplitude_Z,Batterie,SoundSpeed,Heading,Pitch,Roll,Pressure,TIS,Speed,Direction
, degrees North, degrees East, m.s-1, m.s-1,m.s-1, 1, 1, 1, Volt, m.s-1, degree, degree, degree, dbar, degree_C, m.s-1, degree
2019-05-26T00:01:29,42.805,6.029,-0.01,-0.003,0.002,100.0,107.0,95.0,13.3,1505.3,325.8,-0.8,1.8,2470.143,13.32,0.01,253.3
2019-05-26T00:04:30,42.805,6.029,0.02,-0.003,-0.037,99.0,105.0,96.0,13.3,1505.3,325.7,-0.8,1.9,2470.153,13.32,0.02,98.5
2019-05-26T00:07:31,42.805,6.029,0.008,0.006,-0.039,100.0,106.0,96.0,13.4,1505.3,325.3,-0.8,1.9,2470.156,13.32,0.01,53.1
2019-05-26T00:10:32,42.805,6.029,0.024,0.003,0.002,98.0,105.0,96.0,13.3,1505.3,326.3,-0.8,1.9,2470.18,13.32,0.024,82.9
2019-05-26T00:13:33,42.805,6.029,0.033,-0.004,0.005,100.0,106.0,97.0,13.4,1505.3,328.1,-0.8,1.8,2470.18,13.32,0.033,96.9
2019-05-26T00:16:34,42.805,6.029,0.032,-0.011,-0.017,99.0,108.0,96.0,13.4,1505.3,326.3,-0.8,1.8,2470.16,13.32,0.033,109.0
2019-05-26T00:19:35,42.805,6.029,0.029,0.017,0.004,98.0,108.0,96.0,13.3,1505.3,323.6,-0.7,1.9,2470.124,13.32,0.033,59.6
2019-05-26T00:22:36,42.805,6.029,0.024,-0.008,0.014,99.0,108.0,97.0,13.4,1505.3,323.3,-0.8,1.9,2470.17,13.32,0.025,108.4
2019-05-26T00:25:37,42.805,6.029,0.011,0.011,0.006,100.0,106.0,96.0,13.4,1505.3,327.6,-0.8,1.9,2470.166,13.32,0.015,45.0
2019-05-26T00:28:38,42.805,6.029,0.0,-0.005,-0.028,99.0,107.0,97.0,13.3,1505.3,324.7,-0.8,1.9,2470.142,13.32,0.005,180.0
2019-05-26T00:31:39,42.805,6.029,0.016,-0.005,-0.01,100.0,106.0,96.0,13.4,1505.3,326.4,-0.8,1.9,2470.187,13.32,0.016,107.4
2019-05-26T00:34:40,42.805,6.029,0.009,0.008,-0.031,99.0,107.0,96.0,13.3,1505.3,327.9,-0.8,1.9,2470.158,13.32,0.012,48.4
2019-05-26T00:37:41,42.805,6.029,0.03,0.006,0.002,100.0,108.0,98.0,13.3,1505.3,328.1,-0.8,1.9,2470.178,13.32,0.03,78.7
2019-05-26T00:40:42,42.805,6.029,0.039,-0.001,0.003,99.0,109.0,96.0,13.3,1505.3,327.3,-0.8,1.9,2470.165,13.32,0.039,91.5
2019-05-26T00:43:43,42.805,6.029,0.03,-0.016,0.003,98.0,108.0,96.0,13.4,1505.3,327.2,-0.8,1.9,2470.176,13.32,0.034,118.1
2019-05-26T00:46:44,42.805,6.029,0.003,0.002,0.024,98.0,108.0,97.0,13.4,1505.3,324.8,-0.8,1.9,2470.149,13.32,0.003,56.3
2019-05-26T00:49:45,42.805,6.029,0.054,0.008,0.008,100.0,109.0,97.0,13.3,1505.3,326.9,-0.7,1.9,2470.147,13.32,0.054,81.6
2019-05-26T00:52:46,42.805,6.029,0.033,-0.001,-0.001,98.0,109.0,97.0,13.4,1505.3,326.8,-0.7,1.9,2470.159,13.32,0.033,91.7
2019-05-26T00:55:47,42.805,6.029,0.023,0.012,0.03,100.0,109.0,96.0,13.3,1505.3,326.5,-0.7,1.8,2470.208,13.32,0.025,62.4
2019-05-26T00:58:48,42.805,6.029,0.031,0.0,-0.013,98.0,108.0,96.0,13.4,1505.3,323.8,-0.7,1.9,2470.18,13.32,0.03,90.0
2019-05-26T01:01:49,42.805,6.029,0.027,0.002,0.02,99.0,109.0,97.0,13.3,1505.3,323.6,-0.8,1.9,2470.122,13.32,0.027,85.8
2019-05-26T01:04:50,42.805,6.029,0.038,0.007,-0.032,100.0,109.0,96.0,13.3,1505.3,324.3,-0.8,1.9,2470.188,13.32,0.038,79.6
2019-05-26T01:07:51,42.805,6.029,0.042,0.0,-0.002,99.0,110.0,96.0,13.4,1505.3,326.3,-0.8,1.8,2470.209,13.32,0.042,90.0
2019-05-26T01:10:52,42.805,6.029,0.02,-0.006,-0.003,100.0,109.0,95.0,13.4,1505.3,325.9,-0.8,1.8,2470.194,13.32,0.02,106.7
2019-05-26T01:13:53,42.805,6.029,0.013,-0.01,-0.006,99.0,107.0,96.0,13.4,1505.3,324.8,-0.8,1.8,2470.169,13.32,0.016,127.6
2019-05-26T01:16:54,42.805,6.029,0.024,0.002,-0.023,99.0,108.0,97.0,13.4,1505.3,326.8,-0.8,1.9,2470.125,13.32,0.024,85.2
2019-05-26T01:19:55,42.805,6.029,0.046,-0.018,-0.006,99.0,107.0,98.0,13.4,1505.3,328.1,-0.7,1.9,2470.136,13.32,0.049,111.4
2019-05-26T01:22:56,42.805,6.029,0.03,-0.012,0.002,98.0,108.0,98.0,13.4,1505.3,326.1,-0.8,1.9,2470.149,13.32,0.032,111.8
2019-05-26T01:25:57,42.805,6.029,0.02,-0.005,0.014,99.0,106.0,96.0,13.4,1505.3,326.1,-0.8,1.9,2470.149,13.32,0.02,104.0
2019-05-26T01:28:58,42.805,6.029,0.008,-0.011,-0.015,99.0,107.0,97.0,13.3,1505.3,326.9,-0.8,1.9,2470.172,13.32,0.013,144.0
2019-05-26T01:31:59,42.805,6.029,0.024,-0.02,-0.022,100.0,105.0,98.0,13.3,1505.3,327.4,-0.8,1.9,2470.13,13.32,0.031,129.8
2019-05-26T01:35:00,42.805,6.029,0.031,-0.013,-0.001,100.0,106.0,96.0,13.4,1505.3,328.0,-0.8,1.9,2470.159,13.32,0.033,112.7
2019-05-26T01:38:01,42.805,6.029,0.002,0.009,-0.015,98.0,106.0,96.0,13.4,1505.3,325.8,-0.8,1.8,2470.192,13.32,0.009,12.5
2019-05-26T01:41:02,42.805,6.029,0.036,-0.02,-0.005,99.0,107.0,97.0,13.4,1505.3,326.3,-0.8,1.9,2470.12,13.32,0.041,119.1
2019-05-26T01:44:03,42.805,6.029,0.041,0.022,0.014,101.0,106.0,97.0,13.4,1505.3,323.2,-0.8,1.9,2470.117,13.32,0.046,61.8
2019-05-26T01:47:04,42.805,6.029,0.035,-0.001,-0.02,100.0,107.0,97.0,13.4,1505.3,323.7,-0.7,1.8,2470.191,13.32,0.035,91.6
2019-05-26T01:50:05,42.805,6.029,0.014,-0.007,-0.007,99.0,108.0,98.0,13.4,1505.3,325.5,-0.8,1.9,2470.165,13.32,0.015,116.6
2019-05-26T01:53:06,42.805,6.029,0.023,-0.023,-0.03,98.0,106.0,96.0,13.3,1505.3,326.9,-0.8,1.8,2470.183,13.32,0.032,135.0
2019-05-26T01:56:07,42.805,6.029,0.051,0.0,-0.015,99.0,106.0,98.0,13.4,1505.3,324.7,-0.8,1.9,2470.151,13.32,0.051,90.0
2019-05-26T01:59:08,42.805,6.029,0.044,-0.023,-0.006,98.0,105.0,97.0,13.4,1505.3,325.2,-0.8,1.9,2470.141,13.32,0.049,117.6
2019-05-26T02:02:09,42.805,6.029,0.041,0.008,-0.01,99.0,105.0,96.0,13.4,1505.3,327.9,-0.8,1.8,2470.195,13.32,0.041,79.0
2019-05-26T02:05:10,42.805,6.029,0.02,-0.012,-0.003,99.0,103.0,97.0,13.3,1505.3,328.0,-0.8,1.9,2470.198,13.32,0.023,121.0
2019-05-26T02:08:11,42.805,6.029,0.025,-0.018,-0.025,98.0,105.0,96.0,13.3,1505.3,325.8,-0.8,1.9,2470.169,13.32,0.03,125.8
2019-05-26T02:11:12,42.805,6.029,0.065,-0.006,-0.002,99.0,104.0,97.0,13.4,1505.3,328.1,-0.8,1.9,2470.152,13.32,0.065,95.3
2019-05-26T02:14:13,42.805,6.029,0.034,0.003,-0.009,101.0,103.0,96.0,13.4,1505.3,325.4,-0.8,1.9,2470.095,13.32,0.034,85.0
2019-05-26T02:17:14,42.805,6.029,0.055,0.002,0.004,99.0,105.0,96.0,13.4,1505.3,325.9,-0.8,1.9,2470.113,13.32,0.055,87.9
2019-05-26T02:20:15,42.805,6.029,0.04,-0.009,-0.018,99.0,105.0,96.0,13.3,1505.3,324.4,-0.8,1.8,2470.123,13.32,0.041,102.7
2019-05-26T02:23:16,42.805,6.029,0.016,0.0,0.002,100.0,105.0,97.0,13.4,1505.3,326.7,-0.8,1.9,2470.157,13.32,0.016,90.0
2019-05-26T02:26:17,42.805,6.029,0.052,0.006,-0.012,99.0,104.0,96.0,13.4,1505.3,326.4,-0.8,1.9,2470.101,13.32,0.052,83.4
2019-05-26T02:29:18,42.805,6.029,0.067,-0.023,0.003,99.0,103.0,96.0,13.4,1505.3,324.6,-0.8,1.9,2470.156,13.32,0.07,108.9
2019-05-26T02:32:19,42.805,6.029,0.04,-0.011,0.009,98.0,104.0,96.0,13.4,1505.3,326.0,-0.8,1.9,2470.186,13.32,0.041,105.4
2019-05-26T02:35:20,42.805,6.029,0.04,-0.003,-0.021,100.0,107.0,96.0,13.4,1505.3,327.7,-0.8,1.9,2470.13,13.32,0.04,94.3
2019-05-26T02:38:21,42.805,6.029,0.061,0.0,-0.022,100.0,104.0,96.0,13.4,1505.3,324.3,-0.8,1.9,2470.116,13.32,0.06,90.0
2019-05-26T02:41:22,42.805,6.029,0.036,0.005,-0.015,99.0,104.0,97.0,13.4,1505.3,326.7,-0.8,1.9,2470.151,13.32,0.036,82.1
2019-05-26T02:44:23,42.805,6.029,0.022,-0.02,-0.006,99.0,104.0,96.0,13.3,1505.3,326.5,-0.8,1.9,2470.096,13.32,0.029,132.3
2019-05-26T02:47:24,42.805,6.029,0.029,-0.009,-0.021,101.0,102.0,96.0,13.4,1505.3,326.3,-0.8,1.9,2470.132,13.32,0.03,107.2
2019-05-26T02:50:25,42.805,6.029,0.011,-0.019,-0.02,99.0,105.0,97.0,13.3,1505.3,324.5,-0.7,1.9,2470.12,13.32,0.021,149.9
2019-05-26T02:53:26,42.805,6.029,0.064,-0.001,-0.008,99.0,105.0,96.0,13.3,1505.3,324.7,-0.8,1.8,2470.177,13.32,0.064,90.9
2019-05-26T02:56:27,42.805,6.029,0.04,0.002,-0.019,99.0,106.0,96.0,13.4,1505.3,326.3,-0.8,1.9,2470.134,13.32,0.04,87.1
2019-05-26T02:59:28,42.805,6.029,0.035,0.001,0.035,97.0,105.0,98.0,13.4,1505.3,326.0,-0.8,1.9,2470.138,13.32,0.035,88.4
2019-05-26T03:02:29,42.805,6.029,0.024,-0.007,-0.01,98.0,102.0,98.0,13.4,1505.3,324.6,-0.8,1.9,2470.102,13.32,0.025,106.3
2019-05-26T03:05:30,42.805,6.029,0.046,-0.03,0.034,99.0,102.0,97.0,13.4,1505.3,324.2,-0.8,1.9,2470.115,13.32,0.054,123.1
2019-05-26T03:08:31,42.805,6.029,0.022,0.001,-0.005,100.0,102.0,96.0,13.4,1505.3,324.8,-0.8,1.8,2470.148,13.32,0.022,87.4
2019-05-26T03:11:32,42.805,6.029,0.033,-0.01,-0.004,100.0,104.0,97.0,13.4,1505.3,328.4,-0.8,1.9,2470.109,13.32,0.034,106.9
2019-05-26T03:14:33,42.805,6.029,0.026,-0.026,-0.052,99.0,106.0,95.0,13.4,1505.3,327.1,-0.8,1.9,2470.142,13.32,0.036,135.0
2019-05-26T03:17:34,42.805,6.029,0.048,0.002,-0.023,99.0,103.0,97.0,13.4,1505.3,325.6,-0.8,1.9,2470.088,13.32,0.048,87.6
2019-05-26T03:20:35,42.805,6.029,0.038,-0.012,-0.026,99.0,102.0,97.0,13.4,1505.3,323.7,-0.8,1.9,2470.124,13.32,0.039,107.5
2019-05-26T03:23:36,42.805,6.029,0.029,-0.014,-0.026,99.0,102.0,96.0,13.4,1505.3,325.6,-0.8,1.9,2470.129,13.32,0.032,115.8
2019-05-26T03:26:37,42.805,6.029,0.027,-0.009,-0.07,98.0,102.0,97.0,13.4,1505.3,328.1,-0.7,1.9,2470.088,13.32,0.028,108.4
2019-05-26T03:29:38,42.805,6.029,0.03,-0.022,-0.011,99.0,102.0,96.0,13.3,1505.3,327.4,-0.8,1.9,2470.08,13.32,0.037,126.3
2019-05-26T03:32:39,42.805,6.029,0.034,-0.008,-0.001,100.0,103.0,95.0,13.4,1505.3,324.9,-0.8,1.9,2470.146,13.32,0.034,103.2
2019-05-26T03:35:40,42.805,6.029,0.036,0.008,-0.001,100.0,104.0,96.0,13.4,1505.3,326.4,-0.8,1.8,2470.131,13.32,0.036,77.5
2019-05-26T03:38:41,42.805,6.029,0.027,-0.028,0.001,97.0,104.0,96.0,13.4,1505.3,326.3,-0.7,1.9,2470.13,13.32,0.038,136.0
2019-05-26T03:41:42,42.805,6.029,0.035,-0.016,-0.033,100.0,102.0,96.0,13.4,1505.3,326.6,-0.8,1.9,2470.116,13.32,0.038,114.6
2019-05-26T03:44:43,42.805,6.029,0.01,-0.003,-0.014,100.0,102.0,96.0,13.4,1505.3,327.0,-0.8,1.9,2470.075,13.32,0.01,106.7
2019-05-26T03:47:44,42.805,6.029,0.026,-0.021,-0.034,100.0,104.0,96.0,13.3,1505.3,325.5,-0.8,1.8,2470.162,13.32,0.033,128.9
2019-05-26T03:50:45,42.805,6.029,0.013,-0.006,-0.02,99.0,106.0,96.0,13.3,1505.3,326.2,-0.8,1.8,2470.11,13.32,0.014,114.8
2019-05-26T03:53:46,42.805,6.029,0.022,-0.011,-0.028,100.0,105.0,97.0,13.3,1505.3,327.4,-0.8,1.8,2470.122,13.32,0.024,116.6
2019-05-26T03:56:47,42.805,6.029,0.027,-0.01,-0.004,100.0,105.0,97.0,13.4,1505.3,323.2,-0.8,1.9,2470.127,13.32,0.028,110.3
2019-05-26T03:59:48,42.805,6.029,0.044,-0.022,-0.002,99.0,103.0,97.0,13.4,1505.3,325.2,-0.7,1.9,2470.092,13.32,0.049,116.6
2019-05-26T04:02:49,42.805,6.029,0.026,-0.013,-0.031,102.0,102.0,95.0,13.3,1505.3,326.2,-0.8,1.8,2470.074,13.32,0.029,116.6
2019-05-26T04:05:50,42.805,6.029,0.04,-0.012,-0.008,98.0,104.0,97.0,13.4,1505.3,326.9,-0.8,1.9,2470.107,13.32,0.041,106.7
2019-05-26T04:08:51,42.805,6.029,0.045,-0.022,-0.04,99.0,105.0,97.0,13.4,1505.3,327.7,-0.8,1.9,2470.084,13.32,0.05,116.1
2019-05-26T04:11:52,42.805,6.029,0.018,-0.012,-0.055,99.0,106.0,96.0,13.4,1505.3,324.3,-0.8,1.9,2470.12,13.32,0.021,123.7
2019-05-26T04:14:53,42.805,6.029,0.018,-0.006,-0.041,99.0,104.0,97.0,13.4,1505.3,327.8,-0.8,1.8,2470.095,13.32,0.018,108.4
2019-05-26T04:17:54,42.805,6.029,0.045,-0.006,0.004,99.0,103.0,96.0,13.4,1505.3,325.7,-0.8,1.8,2470.114,13.32,0.045,97.6
2019-05-26T04:20:55,42.805,6.029,0.021,-0.007,0.025,99.0,103.0,96.0,13.4,1505.3,326.7,-0.8,1.9,2470.094,13.32,0.022,108.4
2019-05-26T04:23:56,42.805,6.029,0.034,-0.033,-0.01,99.0,104.0,96.0,13.4,1505.3,327.4,-0.7,1.8,2470.095,13.32,0.047,134.1
2019-05-26T04:26:57,42.805,6.029,0.037,-0.026,-0.022,99.0,106.0,96.0,13.4,1505.3,326.2,-0.8,1.9,2470.128,13.32,0.045,125.1
2019-05-26T04:29:58,42.805,6.029,0.038,-0.013,-0.024,100.0,103.0,97.0,13.3,1505.3,325.4,-0.8,1.8,2470.066,13.32,0.04,108.9
2019-05-26T04:32:59,42.805,6.029,0.017,0.006,-0.004,99.0,105.0,98.0,13.4,1505.3,326.7,-0.8,1.9,2470.116,13.32,0.018,70.6
2019-05-26T04:36:00,42.805,6.029,0.023,-0.029,0.02,99.0,105.0,96.0,13.4,1505.3,324.5,-0.8,1.9,2470.096,13.32,0.037,141.6
2019-05-26T04:39:01,42.805,6.029,0.026,-0.048,-0.003,98.0,102.0,95.0,13.4,1505.3,324.9,-0.8,1.9,2470.129,13.32,0.054,151.6
2019-05-26T04:42:02,42.805,6.029,0.05,-0.01,0.017,100.0,104.0,98.0,13.4,1505.3,324.4,-0.8,1.9,2470.068,13.32,0.05,101.3
2019-05-26T04:45:03,42.805,6.029,0.033,-0.008,-0.004,100.0,107.0,97.0,13.4,1505.3,326.2,-0.8,1.8,2470.097,13.32,0.033,103.6
2019-05-26T04:48:04,42.805,6.029,0.044,-0.014,-0.016,99.0,104.0,97.0,13.4,1505.3,326.0,-0.8,1.9,2470.106,13.32,0.046,107.6
2019-05-26T04:51:05,42.805,6.029,0.031,-0.025,0.026,99.0,106.0,97.0,13.4,1505.3,326.2,-0.8,1.9,2470.155,13.32,0.039,128.9
2019-05-26T04:54:06,42.805,6.029,0.036,-0.006,-0.031,99.0,105.0,95.0,13.4,1505.3,326.3,-0.8,1.9,2470.084,13.32,0.036,99.5
2019-05-26T04:57:07,42.805,6.029,0.045,-0.009,0.015,99.0,104.0,97.0,13.4,1505.3,326.4,-0.8,1.9,2470.093,13.32,0.045,101.3
2019-05-26T05:00:08,42.805,6.029,0.015,-0.033,-0.018,99.0,103.0,97.0,13.4,1505.3,326.8,-0.8,1.9,2470.052,13.32,0.036,155.6
2019-05-26T05:03:09,42.805,6.029,0.01,0.007,-0.029,98.0,103.0,95.0,13.4,1505.3,326.6,-0.7,1.9,2470.123,13.32,0.012,55.0
2019-05-26T05:06:10,42.805,6.029,0.015,-0.021,-0.053,99.0,106.0,95.0,13.3,1505.3,326.7,-0.8,1.9,2470.09,13.32,0.025,144.5
2019-05-26T05:09:11,42.805,6.029,0.031,-0.028,-0.035,98.0,103.0,97.0,13.3,1505.3,325.0,-0.7,1.9,2470.095,13.32,0.041,132.1
2019-05-26T05:12:12,42.805,6.029,0.036,0.008,-0.002,98.0,101.0,96.0,13.4,1505.3,325.6,-0.8,1.9,2470.096,13.32,0.036,77.5
2019-05-26T05:15:13,42.805,6.029,0.03,-0.032,-0.029,98.0,102.0,96.0,13.4,1505.3,326.1,-0.7,1.9,2470.075,13.32,0.043,136.9
2019-05-26T05:18:14,42.805,6.029,0.016,-0.016,-0.012,98.0,102.0,97.0,13.4,1505.3,325.1,-0.8,1.8,2470.08,13.32,0.022,135.0
2019-05-26T05:21:15,42.805,6.029,0.011,-0.02,-0.036,98.0,104.0,96.0,13.4,1505.3,325.5,-0.7,1.8,2470.08,13.32,0.022,151.2
2019-05-26T05:24:16,42.805,6.029,0.027,-0.021,-0.013,99.0,101.0,97.0,13.4,1505.3,325.6,-0.8,1.9,2470.101,13.33,0.034,127.9
2019-05-26T05:27:17,42.805,6.029,0.044,-0.028,0.018,100.0,101.0,97.0,13.4,1505.3,325.4,-0.8,1.9,2470.029,13.32,0.052,122.5
2019-05-26T05:30:18,42.805,6.029,0.035,-0.03,-0.021,99.0,103.0,96.0,13.4,1505.3,324.6,-0.8,1.9,2470.126,13.33,0.046,130.6
2019-05-26T05:33:19,42.805,6.029,-0.006,-0.009,-0.035,97.0,105.0,96.0,13.4,1505.3,323.0,-0.7,1.8,2470.136,13.33,0.01,213.7
2019-05-26T05:36:20,42.805,6.029,0.023,-0.029,-0.021,99.0,103.0,97.0,13.4,1505.3,324.5,-0.8,1.9,2470.101,13.33,0.037,141.6
2019-05-26T05:39:21,42.805,6.029,0.009,-0.025,-0.045,98.0,106.0,96.0,13.3,1505.3,326.1,-0.8,1.9,2470.11,13.33,0.026,160.2
2019-05-26T05:42:22,42.805,6.029,0.029,-0.012,-0.016,99.0,102.0,97.0,13.4,1505.3,325.2,-0.7,1.8,2470.093,13.33,0.031,112.5
2019-05-26T05:45:23,42.805,6.029,0.004,-0.015,-0.036,98.0,101.0,96.0,13.4,1505.3,327.9,-0.8,1.9,2470.109,13.33,0.015,165.1
2019-05-26T05:48:24,42.805,6.029,0.031,0.001,0.029,98.0,100.0,96.0,13.4,1505.3,323.0,-0.8,1.9,2470.064,13.33,0.031,88.2
2019-05-26T05:51:25,42.805,6.029,0.0,-0.026,0.006,99.0,102.0,95.0,13.4,1505.3,323.2,-0.8,1.8,2470.108,13.33,0.026,180.0
2019-05-26T05:54:26,42.805,6.029,0.04,-0.015,0.021,99.0,100.0,96.0,13.4,1505.3,323.0,-0.8,1.9,2470.032,13.32,0.042,110.6
2019-05-26T05:57:27,42.805,6.029,0.038,-0.019,0.014,99.0,103.0,96.0,13.3,1505.3,325.7,-0.8,1.9,2470.054,13.32,0.042,116.6
2019-05-26T06:00:28,42.805,6.029,0.048,-0.018,0.018,97.0,102.0,96.0,13.4,1505.3,322.8,-0.7,1.9,2470.072,13.32,0.051,110.6
2019-05-26T06:03:29,42.805,6.029,0.026,-0.014,-0.025,99.0,102.0,95.0,13.4,1505.3,325.2,-0.8,1.9,2470.067,13.32,0.029,118.3
2019-05-26T06:06:30,42.805,6.029,0.026,-0.008,0.011,98.0,100.0,96.0,13.4,1505.3,326.2,-0.8,1.9,2470.081,13.33,0.027,107.1
2019-05-26T06:09:31,42.805,6.029,0.021,-0.013,-0.021,99.0,103.0,95.0,13.4,1505.3,325.7,-0.8,1.9,2470.02,13.32,0.024,121.8
2019-05-26T06:12:32,42.805,6.029,0.016,-0.03,-0.037,99.0,102.0,96.0,13.3,1505.3,326.8,-0.7,1.9,2470.033,13.32,0.034,151.9
2019-05-26T06:15:33,42.805,6.029,0.044,-0.011,-0.019,97.0,101.0,97.0,13.4,1505.3,325.8,-0.8,1.9,2470.03,13.32,0.045,104.0
2019-05-26T06:18:34,42.805,6.029,0.047,-0.012,0.0,100.0,99.0,96.0,13.4,1505.3,326.8,-0.8,1.9,2470.027,13.32,0.048,104.3
2019-05-26T06:21:35,42.805,6.029,0.051,-0.003,-0.003,99.0,103.0,95.0,13.4,1505.3,326.8,-0.8,1.9,2470.018,13.32,0.051,93.4
2019-05-26T06:24:36,42.805,6.029,0.009,-0.014,-0.013,99.0,103.0,96.0,13.4,1505.3,323.9,-0.8,1.9,2470.081,13.33,0.016,147.3
2019-05-26T06:27:37,42.805,6.029,0.011,-0.001,-0.014,98.0,103.0,96.0,13.4,1505.3,326.6,-0.8,1.9,2470.066,13.33,0.011,95.2
2019-05-26T06:30:38,42.805,6.029,0.032,0.001,0.007,99.0,100.0,96.0,13.4,1505.3,323.5,-0.8,1.8,2470.0,13.33,0.032,88.2
2019-05-26T06:33:39,42.805,6.029,0.032,-0.005,-0.015,98.0,102.0,95.0,13.3,1505.3,323.0,-0.8,1.9,2470.016,13.33,0.032,98.9
2019-05-26T06:36:40,42.805,6.029,0.015,-0.041,-0.022,99.0,103.0,95.0,13.4,1505.3,323.7,-0.8,1.9,2470.065,13.33,0.043,159.9
2019-05-26T06:39:41,42.805,6.029,0.016,-0.02,-0.026,99.0,105.0,95.0,13.4,1505.3,323.0,-0.7,1.9,2470.082,13.33,0.025,141.3
2019-05-26T06:42:42,42.805,6.029,0.031,-0.04,-0.054,97.0,104.0,97.0,13.4,1505.3,323.9,-0.8,1.8,2470.065,13.33,0.05,142.2
2019-05-26T06:45:43,42.805,6.029,0.009,-0.032,-0.027,99.0,101.0,96.0,13.4,1505.3,322.9,-0.8,1.9,2470.05,13.33,0.033,164.3
2019-05-26T06:48:44,42.805,6.029,0.003,-0.009,-0.023,98.0,101.0,96.0,13.3,1505.3,323.4,-0.7,1.9,2470.032,13.33,0.009,161.6
2019-05-26T06:51:45,42.805,6.029,0.014,-0.008,-0.018,98.0,105.0,95.0,13.3,1505.3,324.5,-0.7,1.8,2470.072,13.33,0.016,119.7
2019-05-26T06:54:46,42.805,6.029,0.023,0.0,-0.019,98.0,104.0,96.0,13.3,1505.3,322.9,-0.8,1.9,2470.055,13.33,0.023,90.0
2019-05-26T06:57:47,42.805,6.029,0.004,-0.02,-0.029,98.0,102.0,96.0,13.3,1505.3,324.2,-0.8,1.9,2470.03,13.33,0.02,168.7
2019-05-26T07:00:48,42.805,6.029,-0.001,-0.027,0.0,101.0,106.0,95.0,13.4,1505.3,326.9,-0.8,1.9,2470.058,13.33,0.027,182.1
2019-05-26T07:03:49,42.805,6.029,-0.009,-0.006,-0.03,98.0,106.0,97.0,13.4,1505.3,328.0,-0.8,1.9,2470.022,13.33,0.01,236.3
2019-05-26T07:06:50,42.805,6.029,0.015,-0.011,0.011,98.0,103.0,97.0,13.4,1505.3,327.2,-0.7,1.9,2470.013,13.33,0.018,126.3
2019-05-26T07:09:51,42.805,6.029,0.014,-0.013,-0.024,98.0,106.0,96.0,13.4,1505.3,323.9,-0.8,1.8,2470.069,13.33,0.019,132.9
2019-05-26T07:12:52,42.805,6.029,0.013,-0.032,-0.031,99.0,105.0,96.0,13.4,1505.3,323.8,-0.7,1.8,2470.031,13.33,0.034,157.9
2019-05-26T07:15:53,42.805,6.029,0.044,-0.008,-0.016,99.0,103.0,96.0,13.4,1505.3,324.7,-0.8,1.9,2470.039,13.33,0.044,100.3
2019-05-26T07:18:54,42.805,6.029,0.031,-0.015,0.02,99.0,103.0,97.0,13.4,1505.3,326.6,-0.8,1.9,2470.02,13.33,0.034,115.8
2019-05-26T07:21:55,42.805,6.029,0.033,-0.008,-0.003,98.0,103.0,96.0,13.3,1505.3,326.1,-0.8,1.9,2470.056,13.33,0.033,103.6
2019-05-26T07:24:56,42.805,6.029,0.021,-0.005,0.0,99.0,103.0,96.0,13.3,1505.3,326.4,-0.8,1.9,2470.013,13.33,0.021,103.4
2019-05-26T07:27:57,42.805,6.029,0.03,-0.01,-0.024,98.0,104.0,97.0,13.3,1505.3,322.8,-0.8,1.8,2470.005,13.33,0.031,108.4
2019-05-26T07:30:58,42.805,6.029,0.043,-0.009,0.01,98.0,104.0,96.0,13.4,1505.3,324.8,-0.7,1.9,2470.053,13.33,0.043,101.8
2019-05-26T07:33:59,42.805,6.029,0.027,-0.008,-0.004,96.0,104.0,97.0,13.4,1505.3,323.8,-0.8,1.8,2470.053,13.33,0.028,106.5
2019-05-26T07:37:00,42.805,6.029,0.023,-0.031,-0.023,99.0,104.0,98.0,13.3,1505.3,323.7,-0.8,1.8,2470.002,13.33,0.038,143.4
2019-05-26T07:40:01,42.805,6.029,-0.005,-0.034,-0.02,98.0,103.0,97.0,13.4,1505.3,324.5,-0.8,1.9,2470.035,13.33,0.034,188.4
2019-05-26T07:43:02,42.805,6.029,0.034,-0.034,0.025,98.0,104.0,97.0,13.4,1505.3,326.8,-0.8,1.9,2470.05,13.33,0.048,135.0
2019-05-26T07:46:03,42.805,6.029,0.013,-0.011,0.005,100.0,102.0,95.0,13.4,1505.3,324.2,-0.8,1.9,2470.007,13.33,0.017,130.2
2019-05-26T07:49:04,42.805,6.029,0.0,-0.03,-0.021,97.0,105.0,96.0,13.4,1505.3,324.2,-0.8,1.8,2470.083,13.33,0.03,180.0
2019-05-26T07:52:05,42.805,6.029,0.026,-0.045,-0.013,99.0,103.0,95.0,13.3,1505.3,324.9,-0.8,1.8,2470.034,13.33,0.051,150.0
2019-05-26T07:55:06,42.805,6.029,0.039,-0.006,-0.024,101.0,102.0,96.0,13.4,1505.3,324.6,-0.7,1.9,2470.008,13.33,0.039,98.7
2019-05-26T07:58:07,42.805,6.029,0.03,-0.002,-0.002,99.0,101.0,96.0,13.4,1505.3,324.8,-0.8,1.9,2470.018,13.33,0.03,93.8
2019-05-26T08:01:08,42.805,6.029,0.013,-0.013,-0.031,99.0,103.0,97.0,13.4,1505.3,325.0,-0.8,1.8,2470.049,13.33,0.018,135.0
2019-05-26T08:04:09,42.805,6.029,0.002,-0.017,-0.038,98.0,106.0,97.0,13.4,1505.3,325.3,-0.8,1.9,2470.004,13.33,0.017,173.3
2019-05-26T08:07:10,42.805,6.029,0.024,0.009,0.0,97.0,103.0,96.0,13.4,1505.3,327.2,-0.8,1.9,2470.023,13.33,0.025,69.4
2019-05-26T08:10:11,42.805,6.029,0.013,-0.004,0.003,100.0,103.0,94.0,13.3,1505.3,325.6,-0.8,1.8,2470.028,13.33,0.013,107.1
2019-05-26T08:13:12,42.805,6.029,-0.002,-0.002,-0.03,98.0,104.0,98.0,13.4,1505.3,324.4,-0.8,1.9,2470.047,13.33,0.002,225.0
2019-05-26T08:16:13,42.805,6.029,-0.012,-0.015,-0.042,98.0,104.0,96.0,13.4,1505.3,324.7,-0.8,1.8,2470.007,13.33,0.019,218.7
2019-05-26T08:19:14,42.805,6.029,-0.042,-0.002,-0.034,99.0,103.0,95.0,13.4,1505.3,325.3,-0.8,1.8,2470.076,13.33,0.042,267.3
2019-05-26T08:22:15,42.805,6.029,0.02,-0.012,0.02,100.0,102.0,100.0,13.3,1505.3,325.1,-0.8,1.9,2470.025,13.33,0.023,121.0
2019-05-26T08:25:16,42.805,6.029,0.041,-0.002,0.011,98.0,102.0,97.0,13.4,1505.3,324.6,-0.8,1.8,2470.025,13.33,0.041,92.8
2019-05-26T08:28:17,42.805,6.029,-0.017,0.0,-0.056,98.0,105.0,96.0,13.3,1505.3,325.6,-0.7,1.9,2470.03,13.33,0.017,270.0
2019-05-26T08:31:18,42.805,6.029,0.002,-0.02,0.009,99.0,103.0,96.0,13.3,1505.3,324.5,-0.8,1.8,2470.015,13.33,0.02,174.3
2019-05-26T08:34:19,42.805,6.029,-0.021,-0.011,-0.057,98.0,105.0,95.0,13.4,1505.3,325.7,-0.8,1.9,2469.999,13.33,0.023,242.4
2019-05-26T08:37:20,42.805,6.029,0.022,-0.025,-0.056,98.0,105.0,96.0,13.4,1505.3,326.6,-0.8,1.9,2470.007,13.33,0.033,138.7
2019-05-26T08:40:21,42.805,6.029,-0.002,-0.019,-0.028,99.0,104.0,95.0,13.4,1505.3,325.8,-0.8,1.8,2470.02,13.33,0.019,186.0
2019-05-26T08:43:22,42.805,6.029,0.013,-0.03,-0.022,98.0,103.0,96.0,13.4,1505.3,324.8,-0.8,1.8,2470.038,13.33,0.032,156.6
2019-05-26T08:46:23,42.805,6.029,-0.015,-0.019,-0.053,98.0,103.0,97.0,13.4,1505.3,323.2,-0.8,1.9,2470.005,13.33,0.024,218.3
2019-05-26T08:49:24,42.805,6.029,-0.016,-0.019,-0.077,100.0,104.0,95.0,13.4,1505.3,328.0,-0.8,1.9,2469.994,13.33,0.024,220.1
2019-05-26T08:52:25,42.805,6.029,0.033,-0.017,0.023,101.0,104.0,98.0,13.4,1505.3,326.3,-0.8,1.9,2470.019,13.33,0.037,117.3
2019-05-26T08:55:26,42.805,6.029,0.045,-0.021,0.014,98.0,103.0,97.0,13.4,1505.3,326.3,-0.8,1.8,2470.02,13.33,0.049,115.0
2019-05-26T08:58:27,42.805,6.029,0.006,-0.001,-0.044,98.0,103.0,96.0,13.4,1505.3,324.9,-0.8,1.9,2470.012,13.33,0.006,99.5
2019-05-26T09:01:28,42.805,6.029,0.008,-0.001,-0.02,98.0,101.0,96.0,13.3,1505.3,327.7,-0.8,1.8,2470.026,13.33,0.008,97.1
2019-05-26T09:04:29,42.805,6.029,0.011,-0.009,-0.009,98.0,103.0,95.0,13.4,1505.3,328.4,-0.8,1.8,2470.029,13.33,0.014,129.3
2019-05-26T09:07:30,42.805,6.029,-0.001,-0.03,-0.047,98.0,103.0,97.0,13.4,1505.3,327.6,-0.8,1.9,2470.047,13.33,0.03,181.9
2019-05-26T09:10:31,42.805,6.029,0.003,-0.011,-0.05,99.0,103.0,95.0,13.3,1505.3,327.9,-0.8,1.9,2469.997,13.33,0.011,164.7
2019-05-26T09:13:32,42.805,6.029,-0.029,-0.011,-0.087,98.0,103.0,98.0,13.4,1505.3,325.3,-0.8,1.9,2470.034,13.33,0.031,249.2
2019-05-26T09:16:33,42.805,6.029,-0.006,-0.001,-0.005,100.0,102.0,95.0,13.4,1505.3,324.7,-0.8,1.9,2469.976,13.33,0.006,260.5
2019-05-26T09:19:34,42.805,6.029,0.049,-0.035,0.019,100.0,102.0,97.0,13.4,1505.3,327.2,-0.7,1.9,2470.033,13.33,0.06,125.5
2019-05-26T09:22:35,42.805,6.029,0.043,-0.006,0.002,99.0,102.0,98.0,13.4,1505.3,324.1,-0.8,1.8,2470.038,13.33,0.043,97.9
2019-05-26T09:25:36,42.805,6.029,-0.001,-0.017,-0.023,97.0,103.0,96.0,13.3,1505.3,324.9,-0.8,1.9,2470.069,13.33,0.017,183.4
2019-05-26T09:28:37,42.805,6.029,0.007,-0.024,-0.025,99.0,103.0,96.0,13.4,1505.3,324.7,-0.8,1.9,2470.04,13.33,0.025,163.7
2019-05-26T09:31:38,42.805,6.029,0.054,-0.016,0.015,98.0,102.0,96.0,13.3,1505.3,324.6,-0.8,1.9,2470.063,13.33,0.056,106.5
2019-05-26T09:34:39,42.805,6.029,-0.008,-0.025,-0.077,98.0,104.0,95.0,13.3,1505.3,327.5,-0.8,1.9,2470.077,13.33,0.026,197.7
2019-05-26T09:37:40,42.805,6.029,-0.031,-0.041,-0.069,99.0,101.0,96.0,13.3,1505.3,324.8,-0.8,1.9,2469.996,13.33,0.051,217.1